Weather in Zaluchye

Russia / Novgorod Oblast     57°40′04″N   31°45′54″E
temp.,
°C
wind,
m/s
gust,
m/s
humid.,
%
clouds,
%
prec.,
mm/h
press.,
hPa
HPBL,
m
1 march, mon
mon100:00+1wnw1299100 0.1 102278
03:000w2698100 0.1 1024214
06:000w4797100 0.0 1023410
09:00+1sw4995100 0.0 1022396
12:00+2wsw489199 0.0 1021493
15:00+4w5108799 0.0 1020690
18:00+3wsw41288100 0.0 1018558
21:00+2wsw41488100 0.0 1016698
2 march, tue
tue200:00+2w41191100 0.0 1014674
03:00+2wnw41190100 0.0 1015705
06:00+1wnw51089100 0.0 1013702
09:00+1wnw41090100 0.0 1013819
12:00+2wnw41085100 0.1 1013937
15:00+3nw5975100 0.1 10141122
18:00+1nw4118283 0.0 1015854
21:00+1nw4108282 0.0 1018950
3 march, wed
wed300:00−1wnw3109043 0.0 1019445
03:00−1wnw4128751 0.0 1019574
06:00−1wnw4129030 0.0 1018571
09:00−1wnw4108753 0.0 1019641
12:00+1wnw588099 0.0 1018714
15:00+2wnw597799 0.0 1017841
18:00+1wsw3108596 0.0 1015556
21:00+1sw4118279 0.0 1012458
4 march, thu
thu400:00+2wsw5138096 0.0 1008802
03:00+1wsw5138198 0.0 1004777
06:00+1wsw51287100 0.1 1000737
09:00+1w51197100 0.9 998654
12:00+1nw5972100 1.8 9981269
15:00+1nw595760 1.8 10001731
18:00−2nw496678 0.3 10021073
21:00−3nw378080 0.3 1004916
5 march, fri
fri500:00−4nw268252 0.0 1006522
03:00−4wnw248373 0.0 1007530
06:00−5w258689 0.0 1007312
09:00−4wnw258149 0.0 1008602
12:00−3nnw236190 0.0 1008863
15:00−3nnw345990 0.0 10091033
18:00−4nnw3566100 0.0 1010923
21:00−6nnw267767 0.0 1012371